EW2975 Weather Reports


Display with metric or nautical units.
time (UTC)temp
F
wind
direction
speed
MPH
gust
MPH
rain 1hr
in
rain 24hr
in
rain mn
in
humidity
%
barometer
mb
20260506091704 75 164 2.0 4.0 0.00 0.00 0.00 87 1007.4
20260506091604 75 161 2.0 4.0 0.00 0.00 0.00 87 1007.4
20260506091504 75 157 2.0 4.0 0.00 0.00 0.00 87 1007.4
20260506091204 75 156 1.0 4.0 0.00 0.00 0.00 87 1007.3
20260506091104 75 158 1.0 3.0 0.00 0.00 0.00 87 1007.3
20260506091004 75 157 1.0 3.0 0.00 0.00 0.00 87 1007.3
20260506090904 75 156 2.0 3.0 0.00 0.00 0.00 87 1007.3
20260506090704 75 156 2.0 4.0 0.00 0.00 0.00 87 1007.3
20260506090505 75 158 2.0 4.0 0.00 0.00 0.00 87 1007.2
20260506090404 75 160 3.0 4.0 0.00 0.00 0.00 87 1007.2
20260506090305 75 166 3.0 5.0 0.00 0.00 0.00 87 1007.3
20260506090104 75 171 3.0 6.0 0.00 0.00 0.00 87 1007.3
20260506090004 75 169 3.0 7.0 0.00 0.00 0.00 87 1007.3
20260506085904 75 171 3.0 7.0 0.00 0.00 0.00 87 1007.3
20260506085803 75 174 3.0 7.0 0.00 0.00 0.00 86 1007.3
20260506085704 75 177 3.0 7.0 0.00 0.00 0.00 86 1007.3
20260506085604 75 178 4.0 7.0 0.00 0.00 0.00 86 1007.3
20260506085504 75 181 4.0 7.0 0.00 0.00 0.00 86 1007.3
20260506085404 75 179 4.0 7.0 0.00 0.00 0.00 86 1007.3
20260506085204 75 176 4.0 8.0 0.00 0.00 0.00 86 1007.3
20260506085104 75 176 4.0 8.0 0.00 0.00 0.00 86 1007.2
20260506084904 75 183 4.0 8.0 0.00 0.00 0.00 86 1007.2
20260506084704 75 177 4.0 8.0 0.00 0.00 0.00 86 1007.2
20260506084604 75 176 4.0 8.0 0.00 0.00 0.00 86 1007.2
20260506084504 75 175 4.0 8.0 0.00 0.00 0.00 86 1007.2
20260506084404 75 175 4.0 8.0 0.00 0.00 0.00 86 1007.2
20260506084304 75 176 4.0 9.0 0.00 0.00 0.00 86 1007.2
20260506084204 75 176 5.0 9.0 0.00 0.00 0.00 86 1007.3
20260506084104 75 176 5.0 10.0 0.00 0.00 0.00 86 1007.3
20260506083904 75 174 5.0 10.0 0.00 0.00 0.00 86 1007.2
20260506083703 75 175 6.0 10.0 0.00 0.00 0.00 86 1007.3
20260506083604 75 175 6.0 10.0 0.00 0.00 0.00 86 1007.3
20260506083505 75 176 6.0 10.0 0.00 0.00 0.00 86 1007.2
20260506083404 75 175 6.0 12.0 0.00 0.00 0.00 86 1007.3
20260506083104 75 176 7.0 12.0 0.00 0.00 0.00 86 1007.1
20260506083004 75 177 7.0 12.0 0.00 0.00 0.00 86 1007.1
20260506082905 75 178 7.0 12.0 0.00 0.00 0.00 86 1007.2
20260506082804 75 178 7.0 12.0 0.00 0.00 0.00 86 1007.2
20260506082705 75 179 7.0 12.0 0.00 0.00 0.00 86 1007.2
20260506082603 75 181 7.0 12.0 0.00 0.00 0.00 86 1007.3
20260506082404 75 183 7.0 12.0 0.00 0.00 0.00 86 1007.2
20260506082305 75 183 7.0 13.0 0.00 0.00 0.00 86 1007.2
20260506082204 75 184 7.0 13.0 0.00 0.00 0.00 86 1007.1
20260506082104 75 185 7.0 13.0 0.00 0.00 0.00 86 1007.1
20260506082004 75 184 7.0 13.0 0.00 0.00 0.00 86 1007.1
20260506081904 75 184 7.0 13.0 0.00 0.00 0.00 85 1007.1
20260506081804 75 184 7.0 13.0 0.00 0.00 0.00 85 1007.0
20260506081704 75 187 7.0 13.0 0.00 0.00 0.00 85 1007.1
20260506081604 75 188 7.0 13.0 0.00 0.00 0.00 85 1007.0
20260506081404 75 189 7.0 13.0 0.00 0.00 0.00 85 1007.0
20260506081204 75 192 6.0 12.0 0.00 0.00 0.00 85 1007.0
20260506081104 75 191 6.0 12.0 0.00 0.00 0.00 85 1007.0
20260506080904 75 195 6.0 12.0 0.00 0.00 0.00 85 1007.0
20260506080804 75 195 6.0 12.0 0.00 0.00 0.00 85 1007.1
20260506080704 75 194 6.0 11.0 0.00 0.00 0.00 85 1007.1
20260506080603 75 194 6.0 11.0 0.00 0.00 0.00 85 1007.1
20260506080504 75 193 6.0 11.0 0.00 0.00 0.00 85 1007.1
20260506080404 75 193 6.0 11.0 0.00 0.00 0.00 85 1007.2
20260506080304 75 191 6.0 11.0 0.00 0.00 0.00 85 1007.2
20260506080203 75 190 6.0 11.0 0.00 0.00 0.00 85 1007.2
20260506080104 75 189 6.0 11.0 0.00 0.00 0.00 85 1007.2
20260506073504 76 184 6.0 14.0 0.00 0.00 0.00 85 1007.4
20260506073404 76 185 6.0 14.0 0.00 0.00 0.00 85 1007.4
20260506073304 76 187 6.0 11.0 0.00 0.00 0.00 85 1007.4
20260506073204 76 190 6.0 11.0 0.00 0.00 0.00 85 1007.4
20260506073103 76 191 6.0 11.0 0.00 0.00 0.00 85 1007.5
20260506073004 76 190 5.0 11.0 0.00 0.00 0.00 85 1007.5
20260506072903 76 192 5.0 11.0 0.00 0.00 0.00 85 1007.5
20260506072804 76 192 5.0 11.0 0.00 0.00 0.00 85 1007.5
20260506072704 76 190 5.0 11.0 0.00 0.00 0.00 85 1007.5
20260506072604 76 188 4.0 11.0 0.00 0.00 0.00 85 1007.5
20260506072504 76 187 4.0 10.0 0.00 0.00 0.00 86 1007.5
20260506072203 75 178 3.0 9.0 0.00 0.00 0.00 86 1007.6
20260506072104 75 172 3.0 9.0 0.00 0.00 0.00 86 1007.6
20260506072003 75 168 2.0 9.0 0.00 0.00 0.00 86 1007.5
20260506071904 75 162 3.0 6.0 0.00 0.00 0.00 86 1007.6
20260506071803 75 160 3.0 7.0 0.00 0.00 0.00 86 1007.6
20260506071704 75 162 3.0 7.0 0.00 0.00 0.00 86 1007.6
20260506071604 75 163 3.0 7.0 0.00 0.00 0.00 86 1007.6
20260506071504 76 163 3.0 8.0 0.00 0.00 0.00 86 1007.6
20260506071403 76 164 3.0 8.0 0.00 0.00 0.00 86 1007.6
20260506071204 76 166 4.0 8.0 0.00 0.00 0.00 86 1007.6
20260506071104 75 168 4.0 8.0 0.00 0.00 0.00 86 1007.6
20260506071004 76 169 4.0 8.0 0.00 0.00 0.00 86 1007.6
20260506070903 75 170 4.0 8.0 0.00 0.00 0.00 86 1007.6
20260506070804 76 171 4.0 8.0 0.00 0.00 0.00 86 1007.6
20260506070704 76 170 4.0 8.0 0.00 0.00 0.00 86 1007.6
20260506070604 76 170 4.0 8.0 0.00 0.00 0.00 86 1007.6
20260506070504 75 169 4.0 8.0 0.00 0.00 0.00 86 1007.6
20260506070404 76 169 4.0 8.0 0.00 0.00 0.00 86 1007.6
20260506070303 76 169 4.0 8.0 0.00 0.00 0.00 86 1007.6
20260506070204 76 171 4.0 8.0 0.00 0.00 0.00 86 1007.6
20260506070104 76 170 4.0 8.0 0.00 0.00 0.00 86 1007.6
20260506062504 76 190 8.0 14.0 0.00 0.00 0.00 86 1007.2
20260506062403 76 190 8.0 14.0 0.00 0.00 0.00 86 1007.2
20260506062305 76 188 8.0 14.0 0.00 0.00 0.00 86 1007.2
20260506062204 76 187 8.0 14.0 0.00 0.00 0.00 86 1007.2
20260506062103 76 186 8.0 14.0 0.00 0.00 0.00 86 1007.2
20260506062004 76 185 8.0 14.0 0.00 0.00 0.00 86 1007.2
20260506061803 76 179 8.0 14.0 0.00 0.00 0.00 86 1007.2
20260506061704 76 178 8.0 14.0 0.00 0.00 0.00 86 1007.3
20260506061504 76 178 7.0 14.0 0.00 0.00 0.00 86 1007.3
20260506061403 76 178 7.0 13.0 0.00 0.00 0.00 86 1007.3
20260506061303 76 177 7.0 13.0 0.00 0.00 0.00 86 1007.4
20260506061204 76 178 7.0 12.0 0.00 0.00 0.00 86 1007.4
20260506061103 75 176 6.0 12.0 0.00 0.00 0.00 86 1007.4
20260506061004 75 175 6.0 12.0 0.00 0.00 0.00 86 1007.5
20260506060904 75 175 6.0 12.0 0.00 0.00 0.00 86 1007.4
20260506060804 75 177 6.0 12.0 0.00 0.00 0.00 87 1007.4
20260506060703 75 179 6.0 12.0 0.00 0.00 0.00 87 1007.4
20260506060604 75 179 7.0 12.0 0.00 0.00 0.00 87 1007.3
20260506060504 75 175 7.0 14.0 0.00 0.00 0.00 87 1007.3
20260506060404 75 175 7.0 14.0 0.00 0.00 0.00 87 1007.1
20260506060304 75 175 7.0 14.0 0.00 0.00 0.00 87 1007.1
20260506060104 75 176 7.0 14.0 0.00 0.00 0.00 87 1006.9
20260506051403 74 156 6.0 12.0 0.00 0.00 0.00 88 1006.8
20260506051204 75 156 6.0 12.0 0.00 0.00 0.00 88 1006.8
20260506051103 75 156 6.0 12.0 0.00 0.00 0.00 88 1006.9
20260506051004 75 157 6.0 12.0 0.00 0.00 0.00 88 1006.8
20260506050903 75 158 6.0 11.0 0.00 0.00 0.00 88 1006.9
20260506050804 75 157 6.0 11.0 0.00 0.00 0.00 87 1006.8
20260506050703 75 157 6.0 11.0 0.00 0.00 0.00 87 1006.8
20260506050604 75 156 6.0 11.0 0.00 0.00 0.00 87 1006.7
20260506050503 75 156 6.0 12.0 0.00 0.00 0.00 87 1006.8
20260506050404 75 156 6.0 12.0 0.00 0.00 0.00 87 1006.7
20260506050203 75 157 6.0 12.0 0.00 0.00 0.00 87 1006.7
20260506050103 75 158 6.0 12.0 0.00 0.00 0.00 87 1006.8
20260506045103 75 163 8.0 13.0 0.00 0.00 0.00 87 1006.7
20260506045004 75 160 7.0 13.0 0.00 0.00 0.00 87 1006.7
20260506044903 75 160 7.0 13.0 0.00 0.00 0.00 87 1006.7
20260506044804 75 160 7.0 13.0 0.00 0.00 0.00 87 1006.7
20260506044703 75 159 7.0 13.0 0.00 0.00 0.00 87 1006.7
20260506044604 75 159 7.0 12.0 0.00 0.00 0.00 87 1006.6
20260506044404 75 158 7.0 12.0 0.00 0.00 0.00 87 1006.6
20260506044304 75 158 7.0 12.0 0.00 0.00 0.00 87 1006.6
20260506044204 75 158 7.0 12.0 0.00 0.00 0.00 87 1006.6
20260506044103 75 159 7.0 12.0 0.00 0.00 0.00 87 1006.6
20260506044003 75 159 7.0 12.0 0.00 0.00 0.00 87 1006.6
20260506043803 75 157 7.0 12.0 0.00 0.00 0.00 86 1006.6
20260506043704 75 157 7.0 12.0 0.00 0.00 0.00 86 1006.6
20260506043603 75 156 7.0 12.0 0.00 0.00 0.00 86 1006.6
20260506043404 75 156 7.0 12.0 0.00 0.00 0.00 86 1006.6
20260506043303 75 157 7.0 12.0 0.00 0.00 0.00 86 1006.6
20260506043204 75 158 7.0 12.0 0.00 0.00 0.00 86 1006.7
20260506043103 75 156 7.0 12.0 0.00 0.00 0.00 86 1006.7
20260506043004 75 156 6.0 12.0 0.00 0.00 0.00 86 1006.7
20260506042903 75 156 6.0 12.0 0.00 0.00 0.00 86 1006.7
20260506042805 75 157 6.0 11.0 0.00 0.00 0.00 86 1006.7
20260506042703 75 158 6.0 11.0 0.00 0.00 0.00 86 1006.7
20260506042604 75 158 6.0 11.0 0.00 0.00 0.00 86 1006.7
20260506042504 75 158 6.0 11.0 0.00 0.00 0.00 86 1006.8
20260506042404 75 158 6.0 11.0 0.00 0.00 0.00 86 1006.8
20260506042305 75 159 6.0 11.0 0.00 0.00 0.00 86 1006.8
20260506042203 76 158 6.0 11.0 0.00 0.00 0.00 86 1006.7
20260506042103 76 158 6.0 11.0 0.00 0.00 0.00 86 1006.8
20260506042006 75 158 6.0 12.0 0.00 0.00 0.00 86 1006.7
20260506041906 76 159 6.0 12.0 0.00 0.00 0.00 86 1006.8
20260506041805 76 160 7.0 12.0 0.00 0.00 0.00 86 1006.8
20260506041606 76 160 6.0 12.0 0.00 0.00 0.00 85 1006.8
20260506041506 76 160 6.0 12.0 0.00 0.00 0.00 85 1006.7
20260506041405 76 160 7.0 12.0 0.00 0.00 0.00 85 1006.7
20260506041306 76 160 7.0 12.0 0.00 0.00 0.00 85 1006.7
20260506041205 76 160 7.0 12.0 0.00 0.00 0.00 85 1006.7
20260506041106 76 162 6.0 12.0 0.00 0.00 0.00 85 1006.7
20260506041006 76 164 6.0 12.0 0.00 0.00 0.00 85 1006.7
20260506040906 76 164 6.0 12.0 0.00 0.00 0.00 85 1006.7
20260506040606 76 163 6.0 12.0 0.00 0.00 0.00 85 1006.7
20260506040506 76 163 6.0 12.0 0.00 0.00 0.00 85 1006.7
20260506040406 76 163 6.0 12.0 0.00 0.00 0.00 85 1006.6
20260506040305 76 163 6.0 11.0 0.00 0.00 0.00 85 1006.6
20260506040206 76 163 6.0 11.0 0.00 0.00 0.00 85 1006.6
20260506040106 76 162 6.0 11.0 0.00 0.00 0.00 85 1006.6
20260506040006 76 162 6.0 13.0 0.00 0.00 0.00 85 1006.6
20260506035806 76 161 7.0 13.0 0.00 0.00 0.00 85 1006.5
20260506035706 76 160 6.0 13.0 0.00 0.00 0.00 84 1006.5
20260506035606 76 159 7.0 13.0 0.00 0.00 0.00 84 1006.5
20260506035506 76 159 7.0 14.0 0.00 0.00 0.00 84 1006.5
20260506035405 76 159 8.0 14.0 0.00 0.00 0.00 84 1006.5
20260506035306 76 159 8.0 14.0 0.00 0.00 0.00 84 1006.4
20260506035206 76 158 7.0 14.0 0.00 0.00 0.00 84 1006.5
20260506035105 76 158 7.0 14.0 0.00 0.00 0.00 84 1006.5
20260506035006 76 157 7.0 14.0 0.00 0.00 0.00 84 1006.5
20260506034905 76 157 7.0 14.0 0.00 0.00 0.00 84 1006.4
20260506034806 76 155 7.0 14.0 0.00 0.00 0.00 83 1006.5
20260506034606 76 156 7.0 14.0 0.00 0.00 0.00 83 1006.4
20260506034405 76 154 6.0 12.0 0.00 0.00 0.00 83 1006.4
20260506034306 76 154 6.0 12.0 0.00 0.00 0.00 83 1006.4
20260506034206 76 154 6.0 12.0 0.00 0.00 0.00 83 1006.4
20260506034105 76 153 6.0 12.0 0.00 0.00 0.00 83 1006.4
20260506034006 76 153 6.0 12.0 0.00 0.00 0.00 83 1006.4
20260506033906 76 153 6.0 12.0 0.00 0.00 0.00 83 1006.4
20260506033806 76 154 6.0 12.0 0.00 0.00 0.00 82 1006.5
20260506033707 76 154 5.0 11.0 0.00 0.00 0.00 82 1006.4
20260506033605 76 153 6.0 11.0 0.00 0.00 0.00 82 1006.3
20260506033506 76 155 6.0 11.0 0.00 0.00 0.00 82 1006.3
20260506033406 77 157 6.0 11.0 0.00 0.00 0.00 82 1006.3
20260506033306 77 157 6.0 11.0 0.00 0.00 0.00 82 1006.2
20260506033206 77 160 6.0 12.0 0.00 0.00 0.00 81 1006.2
20260506033105 77 160 7.0 12.0 0.00 0.00 0.00 81 1006.3
20260506033006 77 162 7.0 12.0 0.00 0.00 0.00 81 1006.3
20260506032705 77 167 7.0 12.0 0.00 0.00 0.00 81 1006.3
20260506032606 77 167 7.0 12.0 0.00 0.00 0.00 81 1006.3
20260506032506 77 167 7.0 12.0 0.00 0.00 0.00 81 1006.3
20260506032406 77 168 7.0 12.0 0.00 0.00 0.00 82 1006.3
20260506032307 77 168 7.0 12.0 0.00 0.00 0.00 82 1006.3
20260506032206 77 168 7.0 10.0 0.00 0.00 0.00 82 1006.3
20260506032105 77 169 7.0 11.0 0.00 0.00 0.00 82 1006.3
20260506032006 77 170 7.0 11.0 0.00 0.00 0.00 82 1006.3
20260506031905 77 168 7.0 11.0 0.00 0.00 0.00 82 1006.2
20260506031806 77 167 6.0 11.0 0.00 0.00 0.00 82 1006.2
20260506031705 77 167 6.0 11.0 0.00 0.00 0.00 82 1006.1
20260506031606 77 167 6.0 11.0 0.00 0.00 0.00 82 1006.1
20260506031505 77 167 6.0 11.0 0.00 0.00 0.00 82 1006.2
20260506031406 76 166 5.0 11.0 0.00 0.00 0.00 82 1006.2
20260506031206 76 165 5.0 11.0 0.00 0.00 0.00 82 1006.2
20260506031105 76 163 4.0 11.0 0.00 0.00 0.00 82 1006.3
20260506031006 76 162 4.0 11.0 0.00 0.00 0.00 82 1006.2
20260506030905 76 162 4.0 8.0 0.00 0.00 0.00 82 1006.2
20260506030805 76 162 4.0 8.0 0.00 0.00 0.00 82 1006.2
20260506030706 76 160 4.0 8.0 0.00 0.00 0.00 82 1006.2
20260506030505 76 158 3.0 8.0 0.00 0.00 0.00 82 1006.2
20260506030407 76 156 3.0 8.0 0.00 0.00 0.00 82 1006.1
20260506030306 76 154 3.0 8.0 0.00 0.00 0.00 82 1006.0
20260506030205 76 153 3.0 9.0 0.00 0.00 0.00 82 1006.1
20260506030105 76 152 4.0 9.0 0.00 0.00 0.00 82 1006.0
20260506030006 76 152 4.0 9.0 0.00 0.00 0.00 82 1005.9
20260506025905 76 151 4.0 9.0 0.00 0.00 0.00 82 1005.9
20260506025806 76 151 4.0 9.0 0.00 0.00 0.00 82 1005.8
20260506025705 76 151 4.0 9.0 0.00 0.00 0.00 82 1005.8
20260506025606 76 153 4.0 9.0 0.00 0.00 0.00 82 1005.8
20260506025505 76 153 4.0 9.0 0.00 0.00 0.00 82 1005.8
20260506025406 76 155 4.0 9.0 0.00 0.00 0.00 82 1005.7
20260506025306 76 157 4.0 9.0 0.00 0.00 0.00 82 1005.7
20260506025206 76 158 4.0 9.0 0.00 0.00 0.00 81 1005.7
20260506025105 77 160 4.0 9.0 0.00 0.00 0.00 81 1005.7
20260506025005 77 161 4.0 9.0 0.00 0.00 0.00 81 1005.7
20260506024906 77 162 4.0 9.0 0.00 0.00 0.00 81 1005.6
20260506024805 77 163 4.0 9.0 0.00 0.00 0.00 81 1005.7
20260506024706 77 163 4.0 9.0 0.00 0.00 0.00 81 1005.7
20260506024605 77 163 4.0 9.0 0.00 0.00 0.00 81 1005.6
20260506024506 77 163 4.0 9.0 0.00 0.00 0.00 81 1005.6
20260506024406 77 163 4.0 9.0 0.00 0.00 0.00 81 1005.6
20260506024305 77 163 4.0 8.0 0.00 0.00 0.00 81 1005.6
20260506024206 77 162 4.0 8.0 0.00 0.00 0.00 81 1005.6
20260506024106 77 161 4.0 8.0 0.00 0.00 0.00 81 1005.6
20260506024005 77 161 4.0 8.0 0.00 0.00 0.00 81 1005.6
20260506023806 77 162 4.0 8.0 0.00 0.00 0.00 81 1005.5
20260506023706 77 162 4.0 8.0 0.00 0.00 0.00 81 1005.5
20260506023606 77 162 4.0 8.0 0.00 0.00 0.00 81 1005.5
20260506023505 77 162 4.0 8.0 0.00 0.00 0.00 81 1005.5
20260506023406 77 162 4.0 8.0 0.00 0.00 0.00 81 1005.5
20260506023305 77 161 4.0 8.0 0.00 0.00 0.00 81 1005.5
20260506023206 77 160 4.0 7.0 0.00 0.00 0.00 81 1005.6
20260506023105 77 160 4.0 7.0 0.00 0.00 0.00 81 1005.5
20260506022906 77 158 4.0 7.0 0.00 0.00 0.00 81 1005.5
20260506022805 77 158 4.0 7.0 0.00 0.00 0.00 81 1005.5
20260506022705 77 158 4.0 7.0 0.00 0.00 0.00 81 1005.5
20260506022607 77 157 4.0 7.0 0.00 0.00 0.00 81 1005.4
20260506022505 77 156 4.0 7.0 0.00 0.00 0.00 81 1005.4
20260506022406 77 156 4.0 7.0 0.00 0.00 0.00 81 1005.4
20260506022306 77 157 4.0 7.0 0.00 0.00 0.00 81 1005.4
20260506022106 77 158 4.0 7.0 0.00 0.00 0.00 81 1005.4
20260506022005 77 159 4.0 7.0 0.00 0.00 0.00 81 1005.4
20260506021906 77 158 3.0 7.0 0.00 0.00 0.00 81 1005.4
20260506021806 77 156 3.0 7.0 0.00 0.00 0.00 81 1005.4
20260506021705 77 157 3.0 7.0 0.00 0.00 0.00 81 1005.3
20260506021608 77 157 3.0 7.0 0.00 0.00 0.00 81 1005.4
20260506021405 77 157 4.0 7.0 0.00 0.00 0.00 81 1005.3
20260506021306 77 156 3.0 7.0 0.00 0.00 0.00 81 1005.3
20260506021205 77 156 3.0 7.0 0.00 0.00 0.00 81 1005.3
20260506021105 77 155 4.0 7.0 0.00 0.00 0.00 81 1005.3
20260506021005 77 154 4.0 7.0 0.00 0.00 0.00 81 1005.4
20260506020906 77 155 3.0 7.0 0.00 0.00 0.00 80 1005.4
20260506020805 77 154 3.0 7.0 0.00 0.00 0.00 80 1005.4
20260506020706 77 153 3.0 7.0 0.00 0.00 0.00 80 1005.4
20260506020605 77 153 3.0 7.0 0.00 0.00 0.00 80 1005.3
20260506020505 77 152 4.0 7.0 0.00 0.00 0.00 80 1005.3
20260506020406 77 153 4.0 8.0 0.00 0.00 0.00 80 1005.2
20260506020105 77 155 4.0 8.0 0.00 0.00 0.00 80 1005.2
20260506015906 77 156 4.0 9.0 0.00 0.00 0.00 80 1005.2
20260506015805 77 156 4.0 9.0 0.00 0.00 0.00 80 1005.2
20260506015605 78 158 4.0 9.0 0.00 0.00 0.00 80 1005.1
20260506015505 78 159 4.0 9.0 0.00 0.00 0.00 80 1005.1
20260506015406 78 159 4.0 9.0 0.00 0.00 0.00 80 1005.0
20260506015306 78 159 5.0 9.0 0.00 0.00 0.00 79 1005.0
20260506015206 78 160 5.0 9.0 0.00 0.00 0.00 79 1005.0
20260506015105 78 160 5.0 9.0 0.00 0.00 0.00 79 1005.0
20260506015006 78 160 5.0 9.0 0.00 0.00 0.00 79 1005.1
20260506014805 78 159 5.0 9.0 0.00 0.00 0.00 79 1005.0
20260506014705 78 158 5.0 9.0 0.00 0.00 0.00 79 1004.9
20260506014505 78 156 5.0 9.0 0.00 0.00 0.00 79 1004.9
20260506014405 78 155 5.0 9.0 0.00 0.00 0.00 79 1004.9
20260506014305 78 154 5.0 9.0 0.00 0.00 0.00 79 1004.9
20260506014206 78 152 4.0 9.0 0.00 0.00 0.00 79 1004.8
20260506014105 78 151 4.0 9.0 0.00 0.00 0.00 79 1004.8
20260506014006 78 152 4.0 9.0 0.00 0.00 0.00 79 1004.8
20260506013805 78 151 4.0 9.0 0.00 0.00 0.00 79 1004.8
20260506013706 78 150 4.0 9.0 0.00 0.00 0.00 79 1004.8
20260506013606 78 150 4.0 9.0 0.00 0.00 0.00 79 1004.7
20260506013506 78 150 4.0 8.0 0.00 0.00 0.00 79 1004.7
20260506013405 78 150 4.0 8.0 0.00 0.00 0.00 79 1004.7
20260506013305 78 149 4.0 8.0 0.00 0.00 0.00 78 1004.8
20260506013206 78 149 4.0 8.0 0.00 0.00 0.00 78 1004.8
20260506013105 78 149 4.0 8.0 0.00 0.00 0.00 78 1004.7
20260506013006 78 147 4.0 8.0 0.00 0.00 0.00 78 1004.7
20260506012806 78 147 4.0 9.0 0.00 0.00 0.00 78 1004.7
20260506012605 79 147 4.0 9.0 0.00 0.00 0.00 78 1004.7
20260506012506 79 147 4.0 9.0 0.00 0.00 0.00 78 1004.7
20260506012405 79 147 4.0 9.0 0.00 0.00 0.00 78 1004.7
20260506012308 79 148 4.0 9.0 0.00 0.00 0.00 78 1004.6
20260506012205 79 149 4.0 9.0 0.00 0.00 0.00 77 1004.6
20260506012105 79 149 4.0 9.0 0.00 0.00 0.00 77 1004.6
20260506012005 79 149 4.0 9.0 0.00 0.00 0.00 77 1004.6
20260506011906 79 149 4.0 9.0 0.00 0.00 0.00 77 1004.6
20260506011805 79 150 4.0 8.0 0.00 0.00 0.00 77 1004.7
20260506011706 79 149 3.0 8.0 0.00 0.00 0.00 77 1004.7
20260506011605 79 149 3.0 7.0 0.00 0.00 0.00 77 1004.7
20260506011505 79 149 3.0 7.0 0.00 0.00 0.00 77 1004.7
20260506011405 79 149 3.0 7.0 0.00 0.00 0.00 77 1004.8
20260506011306 79 149 3.0 7.0 0.00 0.00 0.00 76 1004.7
20260506011106 79 146 3.0 10.0 0.00 0.00 0.00 76 1004.8
20260506011005 80 147 3.0 10.0 0.00 0.00 0.00 76 1004.7
20260506010806 80 146 4.0 10.0 0.00 0.00 0.00 75 1004.8
20260506010505 80 146 4.0 10.0 0.00 0.00 0.00 75 1004.6
20260506010405 80 145 5.0 10.0 0.00 0.00 0.00 75 1004.7
20260506010306 80 146 5.0 10.0 0.00 0.00 0.00 74 1004.6
20260506010205 80 146 5.0 10.0 0.00 0.00 0.00 74 1004.6
20260506010106 80 147 5.0 9.0 0.00 0.00 0.00 74 1004.6
20260506010006 80 148 6.0 12.0 0.00 0.00 0.00 74 1004.5
20260506005906 80 147 6.0 12.0 0.00 0.00 0.00 74 1004.5
20260506005805 80 149 6.0 12.0 0.00 0.00 0.00 74 1004.5
20260506005706 80 150 6.0 12.0 0.00 0.00 0.00 73 1004.5
20260506005406 81 153 6.0 12.0 0.00 0.00 0.00 73 1004.5
20260506005306 81 153 6.0 12.0 0.00 0.00 0.00 73 1004.5
20260506005205 81 155 6.0 12.0 0.00 0.00 0.00 73 1004.5
20260506005105 81 156 6.0 12.0 0.00 0.00 0.00 71 1004.4
20260506005006 81 155 6.0 12.0 0.00 0.00 0.00 71 1004.5
20260506004905 81 157 6.0 12.0 0.00 0.00 0.00 71 1004.4
20260506004806 81 157 6.0 12.0 0.00 0.00 0.00 71 1004.4
20260506004705 81 157 7.0 12.0 0.00 0.00 0.00 71 1004.4
20260506004606 81 156 7.0 12.0 0.00 0.00 0.00 71 1004.4
20260506004405 82 156 7.0 12.0 0.00 0.00 0.00 70 1004.4
20260506004306 82 157 7.0 12.0 0.00 0.00 0.00 70 1004.4
20260506004205 82 157 7.0 12.0 0.00 0.00 0.00 70 1004.5
20260506004105 82 157 7.0 16.0 0.00 0.00 0.00 70 1004.4
20260506003905 82 157 8.0 16.0 0.00 0.00 0.00 70 1004.4
20260506003806 82 157 8.0 16.0 0.00 0.00 0.00 69 1004.5
20260506003605 82 157 8.0 16.0 0.00 0.00 0.00 69 1004.4
20260506003505 82 158 8.0 16.0 0.00 0.00 0.00 69 1004.4
20260506003306 82 160 8.0 16.0 0.00 0.00 0.00 68 1004.5
20260506003206 82 160 8.0 16.0 0.00 0.00 0.00 68 1004.5
20260506003006 82 160 8.0 14.0 0.00 0.00 0.00 68 1004.5
20260506002905 82 159 8.0 14.0 0.00 0.00 0.00 68 1004.5
20260506002806 82 159 8.0 14.0 0.00 0.00 0.00 68 1004.5
20260506002605 82 160 9.0 14.0 0.00 0.00 0.00 68 1004.5
20260506002505 82 161 9.0 14.0 0.00 0.00 0.00 68 1004.5
20260506002405 83 160 9.0 14.0 0.00 0.00 0.00 68 1004.5
20260506002205 83 157 8.0 14.0 0.00 0.00 0.00 68 1004.6
20260506002105 83 158 8.0 14.0 0.00 0.00 0.00 68 1004.5
20260506001905 83 157 9.0 16.0 0.00 0.00 0.00 68 1004.5
20260506001806 83 157 9.0 16.0 0.00 0.00 0.00 68 1004.5
20260506001705 83 157 9.0 16.0 0.00 0.00 0.00 68 1004.5
20260506001505 83 155 9.0 16.0 0.00 0.00 0.00 68 1004.5
20260506001405 83 155 9.0 16.0 0.00 0.00 0.00 68 1004.5
20260506001305 83 155 9.0 16.0 0.00 0.00 0.00 68 1004.5
20260506001206 83 158 9.0 16.0 0.00 0.00 0.00 68 1004.5
20260506001105 83 158 9.0 16.0 0.00 0.00 0.00 67 1004.5
20260506001006 83 159 9.0 16.0 0.00 0.00 0.00 67 1004.5
20260506000905 83 159 9.0 16.0 0.00 0.00 0.00 67 1004.5
20260506000806 83 159 9.0 15.0 0.00 0.00 0.00 67 1004.5
20260506000705 83 160 9.0 15.0 0.00 0.00 0.00 67 1004.5
20260506000606 83 160 9.0 15.0 0.00 0.00 0.00 67 1004.6
20260506000505 83 158 8.0 14.0 0.00 0.00 0.00 67 1004.6
20260506000405 83 159 8.0 14.0 0.00 0.00 0.00 67 1004.6
20260506000305 83 159 8.0 14.0 0.00 0.00 0.00 67 1004.6
20260506000105 83 155 8.0 13.0 0.00 0.00 0.00 67 1004.5
20260506000005 83 154 7.0 13.0 0.00 0.00 0.00 68 1004.6
20260505235905 83 155 7.0 12.0 0.00 0.00 0.00 68 1004.5
20260505235806 83 156 7.0 12.0 0.00 0.00 0.00 68 1004.5
20260505235705 83 155 7.0 12.0 0.00 0.00 0.00 68 1004.5
20260505235605 83 154 7.0 12.0 0.00 0.00 0.00 68 1004.5
20260505235505 83 154 7.0 12.0 0.00 0.00 0.00 68 1004.5
20260505235406 83 152 7.0 12.0 0.00 0.00 0.00 68 1004.5
20260505235305 83 152 7.0 12.0 0.00 0.00 0.00 68 1004.5
20260505235206 83 153 7.0 12.0 0.00 0.00 0.00 68 1004.5
20260505235105 83 154 8.0 12.0 0.00 0.00 0.00 68 1004.5
20260505234806 83 152 8.0 15.0 0.00 0.00 0.00 68 1004.6
20260505234705 83 152 8.0 15.0 0.00 0.00 0.00 68 1004.6
20260505234605 83 156 8.0 15.0 0.00 0.00 0.00 68 1004.5
20260505234505 83 159 8.0 15.0 0.00 0.00 0.00 68 1004.5
20260505234405 83 160 8.0 15.0 0.00 0.00 0.00 68 1004.5
20260505234305 83 160 8.0 15.0 0.00 0.00 0.00 68 1004.5
20260505234205 83 160 8.0 15.0 0.00 0.00 0.00 68 1004.5
20260505234105 83 160 8.0 15.0 0.00 0.00 0.00 68 1004.5
20260505234005 83 160 8.0 13.0 0.00 0.00 0.00 68 1004.5
20260505233906 83 159 8.0 13.0 0.00 0.00 0.00 68 1004.5
20260505233806 84 159 8.0 13.0 0.00 0.00 0.00 67 1004.5
20260505233705 84 161 7.0 13.0 0.00 0.00 0.00 67 1004.5
20260505233505 84 158 7.0 13.0 0.00 0.00 0.00 68 1004.5
20260505233406 84 157 7.0 13.0 0.00 0.00 0.00 67 1004.5
20260505233305 84 157 7.0 13.0 0.00 0.00 0.00 68 1004.5
20260505233206 84 155 6.0 12.0 0.00 0.00 0.00 67 1004.5
20260505233105 84 155 7.0 12.0 0.00 0.00 0.00 67 1004.5
20260505233006 84 158 7.0 12.0 0.00 0.00 0.00 67 1004.4
20260505232806 84 159 7.0 13.0 0.00 0.00 0.00 67 1004.5
20260505232706 84 158 7.0 13.0 0.00 0.00 0.00 67 1004.5
20260505232606 84 157 7.0 13.0 0.00 0.00 0.00 67 1004.5
20260505232505 84 159 8.0 15.0 0.00 0.00 0.00 67 1004.5
20260505232406 84 159 8.0 15.0 0.00 0.00 0.00 67 1004.5
20260505232305 84 159 8.0 16.0 0.00 0.00 0.00 67 1004.5
20260505232205 84 158 8.0 16.0 0.00 0.00 0.00 67 1004.5
20260505232105 84 158 8.0 16.0 0.00 0.00 0.00 66 1004.4
20260505232005 84 156 8.0 16.0 0.00 0.00 0.00 66 1004.4
20260505231605 84 156 8.0 16.0 0.00 0.00 0.00 66 1004.3
20260505231506 84 156 8.0 16.0 0.00 0.00 0.00 67 1004.2
20260505231405 84 157 7.0 16.0 0.00 0.00 0.00 67 1004.2
20260505231305 84 159 7.0 14.0 0.00 0.00 0.00 67 1004.2
20260505231205 84 162 8.0 13.0 0.00 0.00 0.00 67 1004.2
20260505231105 84 164 8.0 13.0 0.00 0.00 0.00 67 1004.2
20260505231005 84 165 8.0 12.0 0.00 0.00 0.00 67 1004.2
20260505230905 84 166 8.0 12.0 0.00 0.00 0.00 67 1004.2
20260505230805 84 165 8.0 13.0 0.00 0.00 0.00 67 1004.2
20260505230705 84 164 8.0 14.0 0.00 0.00 0.00 67 1004.2
20260505230605 84 163 8.0 14.0 0.00 0.00 0.00 67 1004.2
20260505230505 84 162 9.0 14.0 0.00 0.00 0.00 68 1004.2
20260505230406 84 161 9.0 14.0 0.00 0.00 0.00 67 1004.2
20260505230305 84 158 9.0 15.0 0.00 0.00 0.00 67 1004.2
20260505230006 84 153 8.0 15.0 0.00 0.00 0.00 67 1004.2
20260505225905 84 151 9.0 15.0 0.00 0.00 0.00 67 1004.1
20260505225805 84 150 9.0 16.0 0.00 0.00 0.00 67 1004.1
20260505225705 84 151 8.0 16.0 0.00 0.00 0.00 67 1004.1
20260505225606 84 150 9.0 16.0 0.00 0.00 0.00 66 1004.1
20260505225405 84 147 9.0 16.0 0.00 0.00 0.00 66 1004.1
20260505225306 85 147 9.0 16.0 0.00 0.00 0.00 66 1004.1
20260505225205 85 146 9.0 16.0 0.00 0.00 0.00 66 1004.1
20260505225105 85 146 9.0 16.0 0.00 0.00 0.00 65 1004.1
20260505225005 85 148 9.0 16.0 0.00 0.00 0.00 65 1004.1
20260505224905 85 149 9.0 16.0 0.00 0.00 0.00 65 1004.2
20260505224805 85 151 9.0 16.0 0.00 0.00 0.00 65 1004.2
20260505224705 85 153 9.0 16.0 0.00 0.00 0.00 65 1004.2
20260505224606 85 154 9.0 16.0 0.00 0.00 0.00 65 1004.2
20260505224505 85 156 8.0 16.0 0.00 0.00 0.00 65 1004.2
20260505224407 86 157 8.0 14.0 0.00 0.00 0.00 65 1004.2
20260505224305 86 158 8.0 14.0 0.00 0.00 0.00 65 1004.2
20260505224206 86 161 9.0 14.0 0.00 0.00 0.00 65 1004.3
20260505224105 86 163 9.0 14.0 0.00 0.00 0.00 65 1004.3
20260505224006 86 162 8.0 14.0 0.00 0.00 0.00 65 1004.3
20260505223906 86 161 8.0 14.0 0.00 0.00 0.00 65 1004.3
20260505223805 86 162 8.0 13.0 0.00 0.00 0.00 65 1004.3
20260505223605 86 160 8.0 16.0 0.00 0.00 0.00 65 1004.3
20260505223506 86 157 9.0 16.0 0.00 0.00 0.00 65 1004.3
20260505223405 86 158 9.0 16.0 0.00 0.00 0.00 65 1004.4
20260505223306 86 158 9.0 16.0 0.00 0.00 0.00 65 1004.3
20260505223206 86 157 8.0 16.0 0.00 0.00 0.00 65 1004.3
20260505223105 86 156 8.0 16.0 0.00 0.00 0.00 65 1004.3
20260505222705 86 162 8.0 16.0 0.00 0.00 0.00 65 1004.2
20260505222606 86 163 8.0 15.0 0.00 0.00 0.00 65 1004.2
20260505222505 86 167 8.0 15.0 0.00 0.00 0.00 64 1004.2
20260505222306 86 172 8.0 14.0 0.00 0.00 0.00 65 1004.1
20260505222205 86 174 8.0 14.0 0.00 0.00 0.00 64 1004.1
20260505222105 86 172 8.0 14.0 0.00 0.00 0.00 64 1004.2
20260505222005 86 170 8.0 14.0 0.00 0.00 0.00 63 1004.2
20260505221905 86 168 8.0 14.0 0.00 0.00 0.00 63 1004.1
20260505221805 86 169 8.0 14.0 0.00 0.00 0.00 63 1004.1
20260505221605 87 167 8.0 15.0 0.00 0.00 0.00 63 1004.1
20260505221506 87 166 7.0 15.0 0.00 0.00 0.00 63 1004.1
20260505221405 87 167 8.0 15.0 0.00 0.00 0.00 64 1004.0
20260505221305 87 168 8.0 15.0 0.00 0.00 0.00 64 1004.0
20260505221205 86 167 8.0 15.0 0.00 0.00 0.00 64 1004.0
20260505221105 86 169 8.0 15.0 0.00 0.00 0.00 64 1004.0
20260505221005 86 173 8.0 15.0 0.00 0.00 0.00 64 1004.0
20260505220905 86 177 8.0 15.0 0.00 0.00 0.00 63 1004.0
20260505220805 87 176 8.0 15.0 0.00 0.00 0.00 63 1004.0
20260505220705 87 181 8.0 15.0 0.00 0.00 0.00 62 1004.0
20260505220605 87 183 8.0 14.0 0.00 0.00 0.00 61 1004.0
20260505220506 87 184 8.0 14.0 0.00 0.00 0.00 60 1004.1
20260505220405 87 184 8.0 14.0 0.00 0.00 0.00 60 1004.1
20260505220306 87 184 8.0 13.0 0.00 0.00 0.00 60 1004.1
20260505220105 87 185 8.0 14.0 0.00 0.00 0.00 60 1004.0
20260505220006 87 185 8.0 14.0 0.00 0.00 0.00 60 1004.1
20260505215805 87 186 7.0 14.0 0.00 0.00 0.00 60 1004.1
20260505215605 87 187 7.0 14.0 0.00 0.00 0.00 60 1004.2
20260505215505 87 188 7.0 14.0 0.00 0.00 0.00 60 1004.2
20260505215406 87 190 7.0 14.0 0.00 0.00 0.00 60 1004.2
20260505215306 87 193 7.0 14.0 0.00 0.00 0.00 60 1004.2
20260505215005 87 192 8.0 12.0 0.00 0.00 0.00 59 1004.2
20260505214907 87 190 8.0 12.0 0.00 0.00 0.00 59 1004.2
20260505214806 88 189 8.0 12.0 0.00 0.00 0.00 59 1004.2
20260505214705 88 188 8.0 12.0 0.00 0.00 0.00 59 1004.3
20260505214606 88 188 8.0 13.0 0.00 0.00 0.00 60 1004.3
20260505214505 88 188 8.0 13.0 0.00 0.00 0.00 60 1004.4
20260505214405 88 185 8.0 13.0 0.00 0.00 0.00 60 1004.4
20260505214305 88 183 8.0 13.0 0.00 0.00 0.00 60 1004.5
20260505214205 88 179 8.0 13.0 0.00 0.00 0.00 60 1004.5
20260505214105 88 181 8.0 13.0 0.00 0.00 0.00 60 1004.5
20260505214006 88 177 8.0 13.0 0.00 0.00 0.00 59 1004.5
20260505213905 88 179 7.0 13.0 0.00 0.00 0.00 59 1004.5
20260505213805 88 179 7.0 13.0 0.00 0.00 0.00 59 1004.5
20260505213605 88 174 7.0 12.0 0.00 0.00 0.00 61 1004.5
20260505213505 88 171 7.0 12.0 0.00 0.00 0.00 60 1004.4
20260505213405 88 169 7.0 12.0 0.00 0.00 0.00 60 1004.5
20260505213305 88 169 7.0 12.0 0.00 0.00 0.00 60 1004.5
20260505213205 87 168 7.0 12.0 0.00 0.00 0.00 60 1004.5
20260505213005 87 166 7.0 12.0 0.00 0.00 0.00 60 1004.5
20260505212905 87 165 7.0 12.0 0.00 0.00 0.00 61 1004.5
20260505212805 87 168 7.0 12.0 0.00 0.00 0.00 60 1004.5
20260505212705 87 173 7.0 13.0 0.00 0.00 0.00 60 1004.5
20260505212606 87 176 8.0 13.0 0.00 0.00 0.00 60 1004.5
20260505212406 87 184 8.0 13.0 0.00 0.00 0.00 60 1004.5
20260505212306 87 188 8.0 17.0 0.00 0.00 0.00 60 1004.5
20260505212206 87 191 9.0 17.0 0.00 0.00 0.00 60 1004.5
20260505212105 87 192 9.0 17.0 0.00 0.00 0.00 60 1004.6
20260505212005 87 192 9.0 17.0 0.00 0.00 0.00 60 1004.6
20260505211905 87 187 9.0 17.0 0.00 0.00 0.00 61 1004.6
20260505211805 87 184 10.0 17.0 0.00 0.00 0.00 60 1004.7
20260505211705 87 179 10.0 17.0 0.00 0.00 0.00 60 1004.7
20260505211605 87 177 10.0 17.0 0.00 0.00 0.00 61 1004.7
20260505211405 87 176 9.0 17.0 0.00 0.00 0.00 59 1004.6
20260505211307 87 173 9.0 17.0 0.00 0.00 0.00 60 1004.7
20260505211205 87 172 8.0 17.0 0.00 0.00 0.00 61 1004.7
20260505211105 87 171 9.0 17.0 0.00 0.00 0.00 61 1004.7
20260505211005 87 174 8.0 17.0 0.00 0.00 0.00 60 1004.7
20260505210905 87 178 8.0 17.0 0.00 0.00 0.00 59 1004.6
20260505210805 87 181 7.0 17.0 0.00 0.00 0.00 59 1004.7
20260505210605 88 184 7.0 15.0 0.00 0.00 0.00 59 1004.8
20260505210305 88 179 8.0 15.0 0.00 0.00 0.00 61 1004.8
20260505210205 88 178 8.0 16.0 0.00 0.00 0.00 60 1004.8
20260505210106 88 179 8.0 16.0 0.00 0.00 0.00 61 1004.8
20260505210005 87 178 8.0 16.0 0.00 0.00 0.00 61 1004.8
20260505205905 87 176 9.0 16.0 0.00 0.00 0.00 61 1004.8
20260505205805 87 175 9.0 16.0 0.00 0.00 0.00 61 1004.8
20260505205705 87 173 9.0 16.0 0.00 0.00 0.00 61 1004.8
20260505205605 86 171 10.0 16.0 0.00 0.00 0.00 61 1004.8
20260505205505 86 171 10.0 16.0 0.00 0.00 0.00 61 1004.8
20260505205405 87 171 10.0 16.0 0.00 0.00 0.00 60 1004.9
20260505205205 87 176 9.0 16.0 0.00 0.00 0.00 60 1004.9
20260505205104 87 175 9.0 15.0 0.00 0.00 0.00 59 1004.9
20260505205005 87 177 10.0 19.0 0.00 0.00 0.00 59 1004.9
20260505204905 87 179 9.0 19.0 0.00 0.00 0.00 59 1004.9
20260505204805 87 181 9.0 19.0 0.00 0.00 0.00 59 1004.8
20260505204705 87 184 9.0 19.0 0.00 0.00 0.00 59 1004.8
20260505204605 87 189 9.0 19.0 0.00 0.00 0.00 59 1004.9
20260505204505 88 193 9.0 19.0 0.00 0.00 0.00 60 1004.9
20260505204305 88 198 9.0 19.0 0.00 0.00 0.00 60 1004.9
20260505204205 88 198 10.0 19.0 0.00 0.00 0.00 60 1005.0
20260505204105 88 199 10.0 19.0 0.00 0.00 0.00 60 1005.0
20260505204005 87 194 10.0 19.0 0.00 0.00 0.00 59 1004.9
20260505203805 87 193 10.0 19.0 0.00 0.00 0.00 59 1005.0
20260505203704 87 193 10.0 19.0 0.00 0.00 0.00 59 1005.0
20260505203505 87 187 10.0 19.0 0.00 0.00 0.00 60 1005.0
20260505203405 87 186 10.0 19.0 0.00 0.00 0.00 60 1005.0
20260505203305 87 186 10.0 19.0 0.00 0.00 0.00 60 1005.0
20260505203206 87 183 10.0 19.0 0.00 0.00 0.00 60 1004.9
20260505203105 87 182 10.0 19.0 0.00 0.00 0.00 60 1004.9
20260505203006 87 186 10.0 16.0 0.00 0.00 0.00 60 1005.0
20260505202904 87 186 10.0 16.0 0.00 0.00 0.00 59 1005.0
20260505202805 87 185 9.0 16.0 0.00 0.00 0.00 59 1005.1
20260505202705 88 183 9.0 16.0 0.00 0.00 0.00 59 1005.0
20260505202605 88 183 9.0 16.0 0.00 0.00 0.00 59 1005.1
20260505202505 88 184 9.0 16.0 0.00 0.00 0.00 59 1005.1
20260505202405 88 181 9.0 16.0 0.00 0.00 0.00 59 1005.1
20260505202306 88 177 9.0 16.0 0.00 0.00 0.00 59 1005.2
20260505202206 88 176 9.0 16.0 0.00 0.00 0.00 59 1005.2
20260505202104 88 175 9.0 16.0 0.00 0.00 0.00 59 1005.2
20260505201905 88 174 8.0 16.0 0.00 0.00 0.00 60 1005.0
20260505201805 88 177 8.0 16.0 0.00 0.00 0.00 60 1005.0
20260505201705 88 181 8.0 16.0 0.00 0.00 0.00 60 1005.0
20260505201606 88 179 9.0 16.0 0.00 0.00 0.00 60 1005.0
20260505201505 88 179 9.0 16.0 0.00 0.00 0.00 59 1005.1
20260505201405 88 184 9.0 16.0 0.00 0.00 0.00 59 1005.1
20260505201305 88 186 9.0 16.0 0.00 0.00 0.00 59 1005.1
20260505201205 88 186 9.0 16.0 0.00 0.00 0.00 60 1005.1
20260505201105 88 187 9.0 15.0 0.00 0.00 0.00 60 1005.1
20260505201005 87 188 9.0 15.0 0.00 0.00 0.00 61 1005.1
20260505200905 87 185 9.0 15.0 0.00 0.00 0.00 61 1005.2
20260505200805 87 182 10.0 16.0 0.00 0.00 0.00 60 1005.2
20260505200705 87 178 10.0 17.0 0.00 0.00 0.00 60 1005.3
20260505200605 87 178 10.0 17.0 0.00 0.00 0.00 59 1005.3
20260505200505 87 179 10.0 17.0 0.00 0.00 0.00 61 1005.3
20260505200405 87 176 10.0 17.0 0.00 0.00 0.00 61 1005.4
20260505200305 86 176 11.0 17.0 0.00 0.00 0.00 60 1005.3
20260505200105 86 177 11.0 17.0 0.00 0.00 0.00 61 1005.4
20260505195805 87 174 10.0 17.0 0.00 0.00 0.00 62 1005.4
20260505195705 86 174 11.0 16.0 0.00 0.00 0.00 62 1005.3
20260505195605 86 175 11.0 16.0 0.00 0.00 0.00 62 1005.3
20260505195505 86 173 11.0 16.0 0.00 0.00 0.00 62 1005.4
20260505195405 86 174 11.0 17.0 0.00 0.00 0.00 62 1005.3
20260505195305 86 173 10.0 17.0 0.00 0.00 0.00 62 1005.4
20260505195205 86 173 11.0 17.0 0.00 0.00 0.00 62 1005.3
20260505195105 86 171 11.0 17.0 0.00 0.00 0.00 62 1005.4
20260505195005 86 174 10.0 17.0 0.00 0.00 0.00 61 1005.3
20260505194906 86 177 10.0 17.0 0.00 0.00 0.00 61 1005.3
20260505194805 86 184 10.0 17.0 0.00 0.00 0.00 60 1005.3
20260505194705 86 187 9.0 17.0 0.00 0.00 0.00 62 1005.3
20260505194605 86 188 9.0 17.0 0.00 0.00 0.00 61 1005.3
20260505194505 86 189 8.0 17.0 0.00 0.00 0.00 60 1005.3
20260505194405 86 191 8.0 16.0 0.00 0.00 0.00 62 1005.4
20260505194305 86 193 8.0 14.0 0.00 0.00 0.00 61 1005.4
20260505194205 87 196 8.0 14.0 0.00 0.00 0.00 61 1005.4
20260505194104 87 198 8.0 14.0 0.00 0.00 0.00 61 1005.4
20260505194005 87 197 8.0 14.0 0.00 0.00 0.00 62 1005.5
20260505193905 87 195 8.0 14.0 0.00 0.00 0.00 62 1005.5
20260505193805 87 194 8.0 14.0 0.00 0.00 0.00 62 1005.5
20260505193705 87 196 8.0 14.0 0.00 0.00 0.00 62 1005.5
20260505193504 87 197 8.0 13.0 0.00 0.00 0.00 62 1005.5
20260505193405 87 196 8.0 13.0 0.00 0.00 0.00 62 1005.5
20260505193304 87 197 8.0 13.0 0.00 0.00 0.00 62 1005.6
20260505193205 87 199 8.0 14.0 0.00 0.00 0.00 62 1005.5
20260505193105 86 198 8.0 15.0 0.00 0.00 0.00 63 1005.5
20260505192905 86 194 8.0 16.0 0.00 0.00 0.00 62 1005.5
20260505192807 86 194 8.0 16.0 0.00 0.00 0.00 61 1005.5
20260505192605 87 188 8.0 16.0 0.00 0.00 0.00 63 1005.6
20260505192405 86 187 9.0 16.0 0.00 0.00 0.00 63 1005.6
20260505192306 86 185 9.0 16.0 0.00 0.00 0.00 62 1005.6
20260505192106 86 182 8.0 16.0 0.00 0.00 0.00 63 1005.7
20260505192005 86 184 8.0 15.0 0.00 0.00 0.00 63 1005.7
20260505191905 86 186 7.0 15.0 0.00 0.00 0.00 63 1005.7
20260505191805 86 184 7.0 15.0 0.00 0.00 0.00 62 1005.7
20260505191605 86 186 7.0 15.0 0.00 0.00 0.00 63 1005.8
20260505191306 86 177 7.0 14.0 0.00 0.00 0.00 64 1005.8
20260505191105 85 176 8.0 14.0 0.00 0.00 0.00 64 1005.9
20260505191005 85 178 8.0 14.0 0.00 0.00 0.00 67 1005.9
20260505190906 84 178 8.0 17.0 0.00 0.00 0.00 66 1005.9
20260505190805 84 176 8.0 18.0 0.00 0.00 0.00 65 1005.9
20260505190605 84 177 8.0 18.0 0.00 0.00 0.00 64 1005.9
20260505190305 85 191 8.0 18.0 0.00 0.00 0.00 63 1005.9
20260505190104 85 188 9.0 18.0 0.00 0.00 0.00 64 1006.0
20260505190005 85 186 9.0 18.0 0.00 0.00 0.00 63 1005.8
20260505185905 85 186 9.0 18.0 0.00 0.00 0.00 66 1006.0
20260505185805 85 188 10.0 14.0 0.00 0.00 0.00 65 1005.9
20260505185704 84 187 10.0 15.0 0.00 0.00 0.00 65 1006.0
20260505185605 84 187 10.0 15.0 0.00 0.00 0.00 66 1006.0
20260505185504 84 188 10.0 17.0 0.00 0.00 0.00 66 1006.0
20260505185305 84 185 10.0 18.0 0.00 0.00 0.00 65 1006.0
20260505185204 84 187 10.0 18.0 0.00 0.00 0.00 64 1006.0
20260505185105 84 190 10.0 18.0 0.00 0.00 0.00 65 1006.0
20260505185005 84 189 10.0 18.0 0.00 0.00 0.00 64 1006.0
20260505184905 84 192 10.0 18.0 0.00 0.00 0.00 64 1006.1
20260505184705 84 197 10.0 18.0 0.00 0.00 0.00 65 1006.2
20260505184605 83 198 10.0 18.0 0.00 0.00 0.00 65 1006.2
20260505184504 84 198 10.0 18.0 0.00 0.00 0.00 65 1006.2
20260505184405 84 199 10.0 16.0 0.00 0.00 0.00 65 1006.3
20260505184306 84 197 10.0 16.0 0.00 0.00 0.00 65 1006.2
20260505184206 84 197 10.0 17.0 0.00 0.00 0.00 65 1006.3
20260505184105 84 196 10.0 17.0 0.00 0.00 0.00 65 1006.2
20260505184005 83 196 10.0 17.0 0.00 0.00 0.00 66 1006.2
20260505183905 83 193 10.0 17.0 0.00 0.00 0.00 65 1006.3
20260505183805 84 189 11.0 17.0 0.00 0.00 0.00 65 1006.3
20260505183706 84 186 11.0 17.0 0.00 0.00 0.00 65 1006.3
20260505183605 84 189 10.0 21.0 0.00 0.00 0.00 66 1006.2
20260505183505 84 192 10.0 21.0 0.00 0.00 0.00 66 1006.3
20260505183405 83 194 10.0 21.0 0.00 0.00 0.00 66 1006.2
20260505183305 83 196 10.0 21.0 0.00 0.00 0.00 66 1006.3
20260505183206 83 193 10.0 21.0 0.00 0.00 0.00 66 1006.3
20260505183106 83 193 10.0 21.0 0.00 0.00 0.00 66 1006.3
20260505183005 83 194 10.0 21.0 0.00 0.00 0.00 67 1006.4
20260505182905 83 195 9.0 21.0 0.00 0.00 0.00 66 1006.4
20260505182805 83 199 9.0 21.0 0.00 0.00 0.00 67 1006.5
20260505182605 83 195 9.0 16.0 0.00 0.00 0.00 65 1006.6
20260505182504 83 192 9.0 16.0 0.00 0.00 0.00 66 1006.7
20260505182205 83 188 10.0 17.0 0.00 0.00 0.00 66 1006.6
20260505182105 83 187 10.0 17.0 0.00 0.00 0.00 66 1006.6
20260505182005 83 188 10.0 17.0 0.00 0.00 0.00 66 1006.6
20260505181904 83 190 10.0 17.0 0.00 0.00 0.00 66 1006.6
20260505181806 82 190 10.0 17.0 0.00 0.00 0.00 66 1006.6
20260505181704 82 191 10.0 17.0 0.00 0.00 0.00 66 1006.6
20260505181605 82 192 10.0 17.0 0.00 0.00 0.00 66 1006.6
20260505181505 82 194 10.0 17.0 0.00 0.00 0.00 66 1006.7
20260505181304 82 199 10.0 17.0 0.00 0.00 0.00 68 1006.7
20260505181205 82 198 10.0 17.0 0.00 0.00 0.00 67 1006.7
20260505181104 82 201 10.0 17.0 0.00 0.00 0.00 68 1006.7
20260505181005 82 200 10.0 20.0 0.00 0.00 0.00 67 1006.8
20260505180904 82 199 10.0 20.0 0.00 0.00 0.00 67 1006.8
20260505180806 82 198 10.0 20.0 0.00 0.00 0.00 68 1006.7
20260505180604 82 198 10.0 20.0 0.00 0.00 0.00 68 1006.8
20260505180505 82 200 11.0 20.0 0.00 0.00 0.00 68 1006.7
20260505180405 82 201 11.0 20.0 0.00 0.00 0.00 68 1006.7
20260505180305 82 200 12.0 20.0 0.00 0.00 0.00 67 1006.7
20260505180205 82 202 11.0 20.0 0.00 0.00 0.00 67 1006.7
20260505180105 82 202 11.0 20.0 0.00 0.00 0.00 66 1006.7
20260505180005 82 204 10.0 20.0 0.00 0.00 0.00 68 1006.6
20260505175904 82 204 10.0 20.0 0.00 0.00 0.00 68 1006.6
20260505175805 82 203 10.0 20.0 0.00 0.00 0.00 67 1006.7
20260505175705 82 203 10.0 20.0 0.00 0.00 0.00 67 1006.7
20260505175605 82 201 10.0 20.0 0.00 0.00 0.00 67 1006.7
20260505175505 82 197 10.0 20.0 0.00 0.00 0.00 67 1006.7
20260505175405 83 197 9.0 20.0 0.00 0.00 0.00 67 1006.8
20260505175305 83 195 9.0 20.0 0.00 0.00 0.00 67 1006.8
20260505175206 82 192 9.0 20.0 0.00 0.00 0.00 69 1006.7
20260505175104 82 190 9.0 20.0 0.00 0.00 0.00 70 1006.8
20260505175005 82 189 10.0 20.0 0.00 0.00 0.00 69 1006.8
20260505174905 81 191 10.0 20.0 0.00 0.00 0.00 68 1006.8
20260505174805 81 193 10.0 20.0 0.00 0.00 0.00 67 1006.8
20260505174705 82 195 10.0 20.0 0.00 0.00 0.00 69 1006.9
20260505174605 81 195 10.0 20.0 0.00 0.00 0.00 69 1006.8
20260505174504 81 194 10.0 20.0 0.00 0.00 0.00 68 1006.9
20260505174405 81 193 10.0 19.0 0.00 0.00 0.00 69 1006.9
20260505174305 81 193 11.0 19.0 0.00 0.00 0.00 68 1006.9
20260505174205 81 194 11.0 19.0 0.00 0.00 0.00 68 1007.0
20260505174005 81 197 11.0 20.0 0.00 0.00 0.00 69 1007.0
20260505173904 81 197 11.0 20.0 0.00 0.00 0.00 69 1007.0
20260505173705 81 196 11.0 20.0 0.00 0.00 0.00 69 1007.0
20260505173605 81 197 11.0 20.0 0.00 0.00 0.00 68 1007.0
20260505173505 81 198 11.0 20.0 0.00 0.00 0.00 68 1007.0
20260505173405 81 198 11.0 20.0 0.00 0.00 0.00 68 1007.1
20260505173304 81 198 10.0 20.0 0.00 0.00 0.00 69 1007.1
20260505173205 81 200 10.0 20.0 0.00 0.00 0.00 70 1007.1
20260505173104 81 203 10.0 20.0 0.00 0.00 0.00 69 1007.1
20260505173005 81 204 10.0 17.0 0.00 0.00 0.00 70 1007.1
20260505172905 81 203 10.0 17.0 0.00 0.00 0.00 69 1007.1
20260505172805 81 199 11.0 19.0 0.00 0.00 0.00 70 1007.1
20260505172705 81 200 11.0 20.0 0.00 0.00 0.00 69 1007.1
20260505172505 81 202 11.0 20.0 0.00 0.00 0.00 70 1007.1
20260505172405 81 201 11.0 20.0 0.00 0.00 0.00 70 1007.2
20260505172306 81 203 12.0 20.0 0.00 0.00 0.00 70 1007.2
20260505172205 80 203 12.0 20.0 0.00 0.00 0.00 70 1007.1
20260505172105 80 201 12.0 20.0 0.00 0.00 0.00 70 1007.1
20260505171805 81 204 11.0 23.0 0.00 0.00 0.00 69 1007.0
20260505171705 81 203 11.0 23.0 0.00 0.00 0.00 70 1007.1
20260505171605 81 206 11.0 23.0 0.00 0.00 0.00 69 1007.0
20260505171504 81 206 10.0 23.0 0.00 0.00 0.00 70 1007.0
20260505171405 81 208 10.0 23.0 0.00 0.00 0.00 70 1007.0
20260505171304 80 207 10.0 23.0 0.00 0.00 0.00 70 1007.0
20260505171206 80 206 10.0 23.0 0.00 0.00 0.00 70 1007.0
20260505171104 80 206 10.0 23.0 0.00 0.00 0.00 70 1006.9
20260505171005 80 206 11.0 19.0 0.00 0.00 0.00 70 1006.9
20260505170904 80 205 11.0 19.0 0.00 0.00 0.00 70 1006.9
20260505170805 80 205 11.0 19.0 0.00 0.00 0.00 70 1006.9
20260505170704 80 206 11.0 19.0 0.00 0.00 0.00 70 1006.9
20260505170605 80 203 11.0 19.0 0.00 0.00 0.00 70 1006.9
20260505170504 80 202 11.0 19.0 0.00 0.00 0.00 69 1006.9
20260505170405 80 201 11.0 19.0 0.00 0.00 0.00 69 1006.9
20260505170305 80 201 11.0 19.0 0.00 0.00 0.00 70 1006.9
20260505170205 80 200 11.0 19.0 0.00 0.00 0.00 71 1006.9
20260505170105 80 200 11.0 19.0 0.00 0.00 0.00 71 1006.9
20260505165905 80 198 11.0 19.0 0.00 0.00 0.00 71 1007.0
20260505165806 80 198 11.0 19.0 0.00 0.00 0.00 71 1007.0
20260505165704 80 197 11.0 19.0 0.00 0.00 0.00 71 1007.0
20260505165605 79 195 11.0 19.0 0.00 0.00 0.00 71 1007.0
20260505165505 80 196 10.0 19.0 0.00 0.00 0.00 71 1007.0
20260505165404 80 194 11.0 18.0 0.00 0.00 0.00 71 1007.0
20260505165306 80 194 11.0 18.0 0.00 0.00 0.00 72 1007.0
20260505165205 80 193 10.0 18.0 0.00 0.00 0.00 72 1007.0
20260505165105 80 192 10.0 17.0 0.00 0.00 0.00 72 1007.0
20260505165005 80 193 10.0 17.0 0.00 0.00 0.00 72 1006.9
20260505164904 80 199 10.0 17.0 0.00 0.00 0.00 72 1006.9
20260505164804 79 200 11.0 18.0 0.00 0.00 0.00 72 1007.0
20260505164705 79 200 10.0 18.0 0.00 0.00 0.00 71 1007.0
20260505164604 79 201 11.0 18.0 0.00 0.00 0.00 73 1007.0
20260505164505 79 200 11.0 18.0 0.00 0.00 0.00 71 1007.0
20260505164405 79 202 10.0 18.0 0.00 0.00 0.00 72 1007.0
20260505164306 79 203 10.0 18.0 0.00 0.00 0.00 72 1007.0
20260505164205 79 204 11.0 18.0 0.00 0.00 0.00 72 1007.0
20260505164104 79 206 11.0 18.0 0.00 0.00 0.00 72 1006.9
20260505164005 79 207 11.0 19.0 0.00 0.00 0.00 71 1007.0
20260505163905 79 207 11.0 23.0 0.00 0.00 0.00 71 1006.9
20260505163805 80 208 10.0 23.0 0.00 0.00 0.00 71 1006.9
20260505163705 79 209 11.0 23.0 0.00 0.00 0.00 71 1006.9
20260505163605 79 211 10.0 23.0 0.00 0.00 0.00 73 1007.1
20260505163504 79 214 11.0 23.0 0.00 0.00 0.00 73 1007.0
20260505163304 78 214 11.0 23.0 0.00 0.00 0.00 73 1007.1
20260505163205 78 213 11.0 23.0 0.00 0.00 0.00 72 1007.0
20260505163104 79 212 11.0 23.0 0.00 0.00 0.00 72 1007.1
20260505163006 79 211 10.0 23.0 0.00 0.00 0.00 72 1007.1
20260505162905 79 209 10.0 18.0 0.00 0.00 0.00 73 1007.1
20260505162805 78 207 10.0 18.0 0.00 0.00 0.00 72 1007.1
20260505162705 78 206 10.0 18.0 0.00 0.00 0.00 72 1007.0
20260505162605 79 206 10.0 18.0 0.00 0.00 0.00 72 1007.1
20260505162505 79 204 9.0 18.0 0.00 0.00 0.00 71 1007.1
20260505162404 79 205 9.0 18.0 0.00 0.00 0.00 72 1007.1
20260505162307 79 206 9.0 17.0 0.00 0.00 0.00 73 1007.1
20260505162204 78 205 9.0 17.0 0.00 0.00 0.00 74 1007.1
20260505162104 78 204 8.0 17.0 0.00 0.00 0.00 74 1007.1
20260505162005 78 205 9.0 17.0 0.00 0.00 0.00 74 1007.1
20260505161904 78 207 9.0 17.0 0.00 0.00 0.00 74 1007.2
20260505161805 78 208 9.0 17.0 0.00 0.00 0.00 74 1007.2
20260505161605 77 206 10.0 17.0 0.00 0.00 0.00 74 1007.2
20260505161405 77 204 10.0 20.0 0.00 0.00 0.00 74 1007.2
20260505161305 77 202 11.0 20.0 0.00 0.00 0.00 75 1007.3
20260505161204 77 204 11.0 20.0 0.00 0.00 0.00 75 1007.3
20260505161104 77 205 11.0 20.0 0.00 0.00 0.00 75 1007.3
20260505161005 77 205 11.0 20.0 0.00 0.00 0.00 75 1007.3
20260505160904 76 205 11.0 20.0 0.00 0.00 0.00 75 1007.3
20260505160805 77 204 11.0 20.0 0.00 0.00 0.00 75 1007.3
20260505160704 76 202 11.0 20.0 0.00 0.00 0.00 75 1007.3
20260505160605 76 202 10.0 20.0 0.00 0.00 0.00 75 1007.3
20260505160504 76 202 9.0 20.0 0.00 0.00 0.00 75 1007.3
20260505160405 76 201 9.0 19.0 0.00 0.00 0.00 75 1007.3
20260505160306 76 199 8.0 19.0 0.00 0.00 0.00 75 1007.3
20260505160206 77 198 8.0 15.0 0.00 0.00 0.00 76 1007.3
20260505160104 76 197 8.0 15.0 0.00 0.00 0.00 76 1007.2
20260505153204 75 207 10.0 19.0 0.00 0.00 0.00 78 1007.1
20260505153105 75 205 10.0 19.0 0.00 0.00 0.00 78 1007.1
20260505153005 75 205 10.0 19.0 0.00 0.00 0.00 78 1007.1
20260505152905 75 200 10.0 19.0 0.00 0.00 0.00 77 1007.2
20260505152704 76 196 9.0 19.0 0.00 0.00 0.00 77 1007.1
20260505152605 76 195 8.0 16.0 0.00 0.00 0.00 77 1007.1
20260505152505 76 197 8.0 16.0 0.00 0.00 0.00 78 1007.1
20260505152405 76 199 9.0 16.0 0.00 0.00 0.00 78 1007.1
20260505152205 75 202 9.0 18.0 0.00 0.00 0.00 78 1007.1
20260505152104 75 203 9.0 18.0 0.00 0.00 0.00 79 1007.2
20260505152005 75 204 9.0 18.0 0.00 0.00 0.00 79 1007.1
20260505151804 75 206 9.0 18.0 0.00 0.00 0.00 79 1007.1
20260505151705 75 207 9.0 18.0 0.00 0.00 0.00 79 1007.2
20260505151604 75 208 9.0 18.0 0.00 0.00 0.00 79 1007.3
20260505151505 75 208 9.0 18.0 0.00 0.00 0.00 79 1007.2
20260505151404 75 209 9.0 18.0 0.00 0.00 0.00 79 1007.2
20260505151304 75 207 9.0 16.0 0.00 0.00 0.00 79 1007.2
20260505151204 74 206 9.0 16.0 0.00 0.00 0.00 79 1007.2
20260505151106 74 207 9.0 16.0 0.00 0.00 0.00 79 1007.1
20260505150904 74 208 9.0 16.0 0.00 0.00 0.00 80 1007.2
20260505150806 74 207 8.0 16.0 0.00 0.00 0.00 79 1007.2
20260505150505 74 204 8.0 17.0 0.00 0.00 0.00 79 1007.1
20260505150404 74 203 8.0 17.0 0.00 0.00 0.00 80 1007.1
20260505150305 74 205 8.0 17.0 0.00 0.00 0.00 80 1007.1
20260505150205 74 206 8.0 17.0 0.00 0.00 0.00 80 1007.1
20260505150104 74 207 8.0 17.0 0.00 0.00 0.00 80 1007.2
20260505140404 72 202 9.0 16.0 0.00 0.00 0.00 83 1006.8
20260505140305 72 201 9.0 16.0 0.00 0.00 0.00 83 1006.7
20260505140104 72 199 9.0 16.0 0.00 0.00 0.00 83 1006.7
20260505130305 71 187 7.0 15.0 0.00 0.00 0.00 84 1006.3
20260505130204 71 185 7.0 15.0 0.00 0.00 0.00 84 1006.4
20260505125004 71 179 6.0 12.0 0.00 0.00 0.00 84 1006.2
20260505124904 71 178 7.0 12.0 0.00 0.00 0.00 84 1006.1
20260505124804 71 179 6.0 12.0 0.00 0.00 0.00 84 1006.1
20260505124604 71 179 7.0 12.0 0.00 0.00 0.00 85 1006.0
20260505124504 71 179 7.0 12.0 0.00 0.00 0.00 84 1006.0
20260505124304 71 177 7.0 12.0 0.00 0.00 0.00 85 1006.0
20260505124204 71 176 7.0 12.0 0.00 0.00 0.00 85 1006.0
20260505124104 71 176 7.0 12.0 0.00 0.00 0.00 85 1006.0
20260505124006 71 177 7.0 12.0 0.00 0.00 0.00 85 1006.0
20260505123904 71 177 7.0 12.0 0.00 0.00 0.00 85 1006.0
20260505123804 71 178 7.0 11.0 0.00 0.00 0.00 85 1005.9
20260505123505 71 184 6.0 11.0 0.00 0.00 0.00 85 1005.9
20260505123404 71 184 6.0 10.0 0.00 0.00 0.00 85 1005.9
20260505123305 71 186 6.0 10.0 0.00 0.00 0.00 85 1005.9
20260505123204 71 188 6.0 10.0 0.00 0.00 0.00 85 1005.9
20260505123104 71 188 6.0 10.0 0.00 0.00 0.00 85 1005.8
20260505123005 71 188 6.0 10.0 0.00 0.00 0.00 85 1005.8
20260505122904 71 185 6.0 10.0 0.00 0.00 0.00 85 1005.9
20260505122805 71 186 6.0 10.0 0.00 0.00 0.00 85 1005.8
20260505122704 71 186 6.0 10.0 0.00 0.00 0.00 85 1005.9
20260505122604 71 183 6.0 10.0 0.00 0.00 0.00 85 1005.9
20260505122505 71 182 6.0 10.0 0.00 0.00 0.00 85 1005.8
20260505122404 71 181 6.0 10.0 0.00 0.00 0.00 85 1005.9
20260505122306 71 178 6.0 10.0 0.00 0.00 0.00 85 1005.9
20260505122205 71 177 6.0 10.0 0.00 0.00 0.00 85 1005.8
20260505122105 71 177 6.0 10.0 0.00 0.00 0.00 85 1005.8
20260505121905 71 179 5.0 10.0 0.00 0.00 0.00 85 1005.7
20260505121804 71 178 5.0 9.0 0.00 0.00 0.00 85 1005.7
20260505121604 71 176 5.0 8.0 0.00 0.00 0.00 85 1005.7
20260505121504 71 177 5.0 8.0 0.00 0.00 0.00 85 1005.6
20260505121405 71 179 5.0 9.0 0.00 0.00 0.00 85 1005.6
20260505121304 71 178 5.0 9.0 0.00 0.00 0.00 85 1005.6
20260505121205 71 177 5.0 9.0 0.00 0.00 0.00 85 1005.6
20260505121004 71 175 6.0 9.0 0.00 0.00 0.00 85 1005.6
20260505120904 71 175 6.0 9.0 0.00 0.00 0.00 85 1005.6
20260505120805 71 174 6.0 9.0 0.00 0.00 0.00 85 1005.6
20260505120704 71 173 6.0 10.0 0.00 0.00 0.00 85 1005.6
20260505120604 71 173 6.0 10.0 0.00 0.00 0.00 85 1005.6
20260505120504 71 172 6.0 10.0 0.00 0.00 0.00 85 1005.6
20260505120405 71 171 6.0 10.0 0.00 0.00 0.00 85 1005.6
20260505120304 71 170 6.0 10.0 0.00 0.00 0.00 85 1005.5
20260505120105 71 169 6.0 10.0 0.00 0.00 0.00 85 1005.6
20260505120005 71 170 6.0 10.0 0.00 0.00 0.00 85 1005.5
20260505115905 71 169 6.0 10.0 0.00 0.00 0.00 85 1005.5
20260505115804 71 171 6.0 11.0 0.00 0.00 0.00 85 1005.5
20260505115705 71 172 6.0 11.0 0.00 0.00 0.00 85 1005.5
20260505115604 71 174 6.0 11.0 0.00 0.00 0.00 85 1005.4
20260505115305 71 175 5.0 11.0 0.00 0.00 0.00 85 1005.4
20260505115204 71 176 5.0 11.0 0.00 0.00 0.00 85 1005.3
20260505115104 71 177 5.0 11.0 0.00 0.00 0.00 85 1005.3
20260505115005 71 176 6.0 11.0 0.00 0.00 0.00 85 1005.3
20260505114905 71 177 6.0 11.0 0.00 0.00 0.00 85 1005.4
20260505114804 71 176 6.0 9.0 0.00 0.00 0.00 85 1005.4
20260505114704 71 175 6.0 11.0 0.00 0.00 0.00 85 1005.4
20260505114605 71 174 6.0 11.0 0.00 0.00 0.00 85 1005.5
20260505114504 71 175 6.0 11.0 0.00 0.00 0.00 85 1005.5
20260505114403 71 175 6.0 12.0 0.00 0.00 0.00 85 1005.6
20260505114304 71 177 7.0 12.0 0.00 0.00 0.00 85 1005.6
20260505114105 71 176 6.0 12.0 0.00 0.00 0.00 85 1005.6
20260505114005 71 178 7.0 12.0 0.00 0.00 0.00 85 1005.6
20260505113904 70 177 7.0 12.0 0.00 0.00 0.00 85 1005.6
20260505113804 70 176 7.0 12.0 0.00 0.00 0.00 85 1005.5
20260505113704 70 177 7.0 12.0 0.00 0.00 0.00 85 1005.5
20260505113604 70 176 7.0 12.0 0.00 0.00 0.00 85 1005.5
20260505113405 70 176 7.0 11.0 0.00 0.00 0.00 85 1005.5
20260505113305 70 174 7.0 11.0 0.00 0.00 0.00 85 1005.5
20260505113204 70 172 7.0 11.0 0.00 0.00 0.00 85 1005.4
20260505113105 70 173 7.0 11.0 0.00 0.00 0.00 85 1005.4
20260505113004 70 172 6.0 11.0 0.00 0.00 0.00 85 1005.4
20260505112804 70 174 6.0 11.0 0.00 0.00 0.00 85 1005.3
20260505112704 70 174 6.0 11.0 0.00 0.00 0.00 85 1005.3
20260505112604 70 174 6.0 9.0 0.00 0.00 0.00 85 1005.3
20260505112504 70 174 5.0 9.0 0.00 0.00 0.00 85 1005.3
20260505112404 70 176 5.0 9.0 0.00 0.00 0.00 85 1005.3
20260505112305 71 177 6.0 9.0 0.00 0.00 0.00 85 1005.3
20260505112204 71 178 6.0 9.0 0.00 0.00 0.00 85 1005.4
20260505112105 71 177 6.0 9.0 0.00 0.00 0.00 85 1005.4
20260505112004 71 178 6.0 9.0 0.00 0.00 0.00 85 1005.5
20260505111905 70 179 6.0 9.0 0.00 0.00 0.00 85 1005.5
20260505111804 70 181 6.0 9.0 0.00 0.00 0.00 85 1005.5
20260505111604 71 183 6.0 10.0 0.00 0.00 0.00 85 1005.5
20260505111505 71 183 6.0 11.0 0.00 0.00 0.00 85 1005.5
20260505111405 71 182 6.0 11.0 0.00 0.00 0.00 85 1005.4
20260505111305 71 183 6.0 11.0 0.00 0.00 0.00 85 1005.4
20260505111204 71 185 6.0 11.0 0.00 0.00 0.00 85 1005.4
20260505111105 71 186 6.0 11.0 0.00 0.00 0.00 85 1005.4
20260505111004 71 185 6.0 11.0 0.00 0.00 0.00 85 1005.5
20260505110804 71 183 7.0 11.0 0.00 0.00 0.00 85 1005.7
20260505110705 71 184 7.0 14.0 0.00 0.00 0.00 85 1005.7
20260505110604 71 184 7.0 14.0 0.00 0.00 0.00 85 1005.6
20260505110505 71 183 7.0 14.0 0.00 0.00 0.00 85 1005.6
20260505110404 71 182 8.0 14.0 0.00 0.00 0.00 85 1005.6
20260505110204 71 179 8.0 14.0 0.00 0.00 0.00 85 1005.6
20260505102204 71 188 9.0 16.0 0.00 0.00 0.00 84 1005.3
20260505102104 71 187 8.0 16.0 0.00 0.00 0.00 84 1005.3
20260505102004 71 187 8.0 16.0 0.00 0.00 0.00 84 1005.3
20260505101905 71 186 8.0 16.0 0.00 0.00 0.00 84 1005.3
20260505101803 71 186 8.0 16.0 0.00 0.00 0.00 84 1005.3
20260505101704 71 186 8.0 16.0 0.00 0.00 0.00 84 1005.3
20260505101505 71 187 8.0 16.0 0.00 0.00 0.00 84 1005.3
20260505101404 71 188 8.0 13.0 0.00 0.00 0.00 84 1005.3
20260505101204 71 190 8.0 13.0 0.00 0.00 0.00 84 1005.3
20260505101104 71 191 9.0 14.0 0.00 0.00 0.00 84 1005.3
20260505101004 71 189 9.0 16.0 0.00 0.00 0.00 84 1005.4
20260505100804 71 191 9.0 16.0 0.00 0.00 0.00 84 1005.4
20260505100505 71 189 10.0 20.0 0.00 0.00 0.00 83 1005.4
20260505100404 71 189 10.0 20.0 0.00 0.00 0.00 83 1005.4
20260505100305 71 188 10.0 20.0 0.00 0.00 0.00 83 1005.4
20260505100204 71 188 10.0 20.0 0.00 0.00 0.00 83 1005.4
20260505100106 71 188 10.0 20.0 0.00 0.00 0.00 83 1005.4
20260505100004 71 189 10.0 20.0 0.00 0.00 0.00 83 1005.4
20260505095804 71 189 10.0 20.0 0.00 0.00 0.00 83 1005.5
20260505095704 71 190 10.0 18.0 0.00 0.00 0.00 83 1005.5
20260505095604 71 190 10.0 18.0 0.00 0.00 0.00 83 1005.6
20260505095404 71 191 10.0 18.0 0.00 0.00 0.00 83 1005.6
20260505095305 71 191 10.0 18.0 0.00 0.00 0.00 83 1005.6
20260505095104 71 192 10.0 17.0 0.00 0.00 0.00 83 1005.5
20260505095004 71 192 10.0 17.0 0.00 0.00 0.00 83 1005.5
20260505094905 71 192 10.0 17.0 0.00 0.00 0.00 83 1005.5
20260505094804 71 192 10.0 17.0 0.00 0.00 0.00 83 1005.4
20260505094704 71 190 10.0 17.0 0.00 0.00 0.00 83 1005.4
20260505094604 71 191 11.0 18.0 0.00 0.00 0.00 83 1005.4
20260505094504 71 191 11.0 18.0 0.00 0.00 0.00 83 1005.4
20260505094403 71 189 10.0 18.0 0.00 0.00 0.00 83 1005.4
20260505094304 71 189 10.0 18.0 0.00 0.00 0.00 83 1005.4
20260505094204 71 190 10.0 18.0 0.00 0.00 0.00 83 1005.4
20260505094104 71 189 10.0 18.0 0.00 0.00 0.00 83 1005.4
20260505094004 71 189 10.0 18.0 0.00 0.00 0.00 83 1005.4
20260505093904 71 189 10.0 18.0 0.00 0.00 0.00 83 1005.4
20260505093704 71 190 10.0 18.0 0.00 0.00 0.00 83 1005.5
20260505093604 71 190 10.0 17.0 0.00 0.00 0.00 83 1005.4
20260505093404 71 191 10.0 17.0 0.00 0.00 0.00 83 1005.4
20260505093204 71 190 10.0 17.0 0.00 0.00 0.00 83 1005.5
20260505093004 71 191 10.0 17.0 0.00 0.00 0.00 83 1005.5
20260505092904 71 191 10.0 17.0 0.00 0.00 0.00 83 1005.5
20260505092704 71 191 9.0 17.0 0.00 0.00 0.00 83 1005.4
20260505092604 71 190 10.0 17.0 0.00 0.00 0.00 83 1005.5
20260505092504 71 189 10.0 17.0 0.00 0.00 0.00 83 1005.5
20260505092305 71 190 10.0 21.0 0.00 0.00 0.00 83 1005.4
20260505092204 71 190 10.0 21.0 0.00 0.00 0.00 83 1005.5
20260505092104 71 189 10.0 21.0 0.00 0.00 0.00 83 1005.5
20260505092004 71 190 11.0 21.0 0.00 0.00 0.00 83 1005.5
20260505091804 71 190 10.0 21.0 0.00 0.00 0.00 83 1005.6